BIRD-B
1 42823U 98067MX 18144.40454004 .00019690 00000-0 18887-3 0 9998
2 42823 51.6350 122.1840 0006294 88.2485 271.9231 15.66620779 50105
BIRD-N
1 42824U 98067MY 18144.36200514 .00019181 00000-0 18551-3 0 9992
2 42824 51.6354 122.6647 0006160 88.4576 271.7125 15.66435446 50087
TechnoSat
1 42829U 17042E 18144.73815205 .00000242 00000-0 30041-4 0 9998
2 42829 97.5988 47.9723 0012729 279.0803 80.8975 14.90815849 46832
TOMSK-TPU 120
1 42910U 98067MZ 18144.49059082 .00013790 00000-0 15087-3 0 9995
2 42910 051.6340 125.7306 0006544 109.5327 250.6375 15.63600053043674
TANYUSHA 1
1 42911U 98067NA 18144.48838085 .00015445 00000-0 16252-3 0 9997
2 42911 51.6349 125.0013 0006258 103.3534 256.8159 15.64489100 43662
TANYUSHA 2
1 42912U 98067NB 18144.41863940 .00015176 00000-0 16310-3 0 9995
2 42912 051.6359 126.0068 0005437 112.2282 247.9290 15.63969264043662
SFERA 2
1 42913U 98067NC 18144.46954424 .00035472 00000-0 28223-3 0 9996
2 42913 051.6325 119.5604 0004470 102.4332 257.7166 15.70844342043750
TNS 0-2
1 42914U 98067ND 18144.53284310 .00013215 00000-0 14606-3 0 9996
2 42914 051.6352 126.0509 0005544 108.3836 251.7762 15.63387525043646
QIKCOM-1
1 42983U 98067NF 18144.57551658 .00002686 00000-0 44652-4 0 9993
2 42983 51.6389 134.6284 0004836 105.0035 255.1492 15.56096647 32544
AO-91
1 43017U 17073E 18144.51919268 .00000750 00000-0 64591-4 0 9993
2 43017 097.7068 076.6354 0259690 349.0354 010.5261 14.78053366027618
EcAMSat
1 43019U 98067NG 18144.40607042 .00004517 00000-0 68504-4 0 9992
2 43019 51.6388 134.9979 0005777 81.8774 278.2873 15.56835146114842
PICSAT
1 43132U 18004X 18144.12233229 .00001142 00000-0 52232-4 0 9994
2 43132 097.5356 206.7353 0010186 173.4786 186.6585 15.22579767020055
AO-92
1 43137U 18004AC 18144.37485481 .00000931 00000-0 43083-4 0 9994
2 43137 097.5352 207.0087 0009671 174.0400 186.0953 15.22660741020091
TianYi 2
1 43155U 18008A 18144.84713478 .00000241 00000-0 18477-4 0 9993
2 43155 97.5238 219.7179 0016855 220.8221 249.0183 15.10517327 18965
Zhou Enlai
1 43156U 18008B 18144.76264012 .00000980 00000-0 64145-4 0 9993
2 43156 97.5290 219.6041 0014090 217.5621 263.4572 15.09979269 18942
TianYi 6
1 43158U 18008D 18144.78481130 .00000203 00000-0 16518-4 0 9998
2 43158 97.5249 219.5094 0012906 213.6025 263.1197 15.09684783 18926
S-Net G
1 43186U 18014G 18144.75215541 .00000521 00000-0 51044-4 0 9990
2 43186 97.7266 53.5269 0009976 224.3791 135.6631 14.96441553 16813
S-Net H
1 43187U 18014H 18144.68522558 .00000512 00000-0 50217-4 0 9993
2 43187 97.7263 53.4583 0009975 224.5496 135.4925 14.96442341 16801
S-Net J
1 43188U 18014J 18144.75202801 .00000513 00000-0 50361-4 0 9999
2 43188 97.7267 53.5279 0009972 224.4502 135.5920 14.96443211 16817
S-Net K
1 43189U 18014K 18144.55151067 .00000497 00000-0 48889-4 0 9998
2 43189 097.7264 053.3256 0009955 225.1064 134.9350 14.96441790015336
FMN 1
1 43192U 18015A 18144.57821869 .00001770 00000-0 78701-4 0 9990
2 43192 097.3520 273.9600 0015812 222.8472 137.1532 15.22710949016928
Shaonian Xing
1 43199U 18015H 18144.57394309 .00001209 00000-0 53265-4 0 9996
2 43199 097.3301 273.7917 0016303 237.4624 122.5037 15.23608458016940
1KUNS-PF
1 43466U 98067NP 18144.42954027 .00007993 00000-0 12329-3 0 9992
2 43466 51.6407 137.0566 0001492 67.2942 95.2002 15.55136484 2004
UBAKUSAT
1 43467U 98067NQ 18144.42157696 .00006470 00000-0 10105-3 0 9999
2 43467 051.6410 137.0909 0003685 052.4432 068.1948 15.55171245002008
Irazu
1 43468U 98067NR 18144.40011079 .00009314 00000-0 14213-3 0 9996
2 43468 51.6412 137.1995 0001385 59.7597 300.3552 15.55207501101988
LONGJIANG 1
1 43471U 18045B 18140.97000001 -.00010094 00000-0 00000-0 0 9993
2 43471 027.5020 209.5210 9658153 171.2240 002.0960 00.09844104000018
LONGJIANG 2
1 43472U 18045C 18140.97000001 -.00010094 00000-0 00000-0 0 9994
2 43472 027.5020 209.5210 9658153 171.2240 002.0960 00.09844104000019
/EX
1
0
The Japan Aerospace Exploration Agency (JAXA) has announced that three
cubesat carrying Amateur Radio payloads were deployed from the ISS on May 11
at around 1030 UTC. See AMSAT News Service bulletin ANS-133 for details.
The following cubesats have been added to this week's AMSAT-NA TLE
distribution and are designated by Space-Track as follows:
UBAKUSAT (Turkey)- NORAD CAT ID 43466 (a 3U cubesat with a CW beacon at
437.225 MHz, a telemetry beacon at 435.325 MHZ, and a linear transponder
with a 435.200 - 435.250 MHz downlink / 145.940 - 145.990 MHz uplink)
1KUNS-PF (Kenya)- NORAD CAT ID 43467 (a 3U cubesat with a 1200 bps or 9600
bps telemetry beacon at 437.300 MHz)
Irazu (Costa Rica) - NORAD CAT ID 43468 (a 1U cubesat with a 9600 bps
telemetry beacon at 436.500 MHz)
Nico Janssen (PA0DLO) reminds us that it is still too early to tell if the
above CAT ID's are correct for each object. There may be changes.
1
0
SB KEPS @ AMSAT $ORB18137.N
2Line Orbital Elements 18137.AMSAT
HR AMSAT ORBITAL ELEMENTS FOR AMATEUR SATELLITES IN NASA FORMAT
FROM WA5QGD FORT WORTH,TX May 17, 2018
BID: ORB18137.N
DECODE 2-LINE ELSETS WITH THE FOLLOWING KEY:
1 AAAAAU 00 0 0 BBBBB.BBBBBBBB .CCCCCCCC 00000-0 00000-0 0 DDDZ
2 AAAAA EEE.EEEE FFF.FFFF GGGGGGG HHH.HHHH III.IIII JJ.JJJJJJJJKKKKKZ
KEY: A-CATALOGNUM B-EPOCHTIME C-DECAY D-ELSETNUM E-INCLINATION F-RAAN
G-ECCENTRICITY H-ARGPERIGEE I-MNANOM J-MNMOTION K-ORBITNUM Z-CHECKSUM
TO ALL RADIO AMATEURS BT
AO-07
1 07530U 74089B 18137.54052841 -.00000040 00000-0 29123-4 0 9998
2 07530 101.6846 105.3232 0012448 036.1529 072.0088 12.53632579990527
UO-11
1 14781U 84021B 18137.57048462 .00000074 00000-0 15262-4 0 9993
2 14781 097.6521 175.0875 0008606 173.3582 186.7748 14.83003765818909
LO-19
1 20442U 90005G 18137.41809036 .00000005 00000-0 18089-4 0 9992
2 20442 098.6085 076.1020 0010712 238.5958 121.4179 14.32895216479429
HUBBLE
1 20580U 90037B 18137.20775463 .00000515 00000-0 20617-4 0 9999
2 20580 28.4701 319.8991 0002702 163.8434 156.0477 15.09038046340787
MET-2/21
1 22782U 93055A 18137.52086385 .00000014 00000-0 -48621-6 0 9993
2 22782 082.5469 118.2699 0021486 210.0112 288.1869 13.83808933247664
AO-27
1 22825U 93061C 18136.52512195 -.00000012 00000-0 13186-4 0 9994
2 22825 098.8603 112.0710 0009530 080.3253 279.9005 14.30029930284776
IO-26
1 22826U 93061D 18137.52860103 -.00000001 00000-0 17190-4 0 9998
2 22826 098.8546 113.1340 0010000 068.4218 291.8028 14.30361428285125
FO-29
1 24278U 96046B 18137.61636567 -.00000059 00000-0 -24037-4 0 9994
2 24278 98.5198 340.5842 0350175 190.0812 169.3175 13.53083715 74103
NOAA-15
1 25338U 98030A 18137.59599778 .00000054 00000-0 41688-4 0 9990
2 25338 098.7709 154.0055 0009658 321.2941 038.7546 14.25851944040407
